timestamp,surface_pressure_avg,surface_temp_avg,battery_voltage,lat,long
2017-10-16 00:00:00+00:00,274.3264,11.59,12.97,47.84626,-54.09684
2017-10-16 00:10:00+00:00,255.6781,11.57,12.97,47.84626,-54.09684
2017-10-16 00:20:00+00:00,253.2564,11.57,13.05,47.84626,-54.09684
2017-10-16 00:30:00+00:00,254.7181,11.57,13.05,47.84626,-54.09684
2017-10-16 00:40:00+00:00,244.8698,11.56,13.05,47.84626,-54.09684
2017-10-16 00:50:00+00:00,237.5215,11.51,13.05,47.84626,-54.09684
2017-10-16 01:00:00+00:00,244.6598,11.5,12.97,47.84626,-54.09684
2017-10-16 01:10:00+00:00,244.8981,11.52,12.97,47.84626,-54.09684
2017-10-16 01:20:00+00:00,236.5197,11.5,12.97,47.84626,-54.09684
2017-10-16 01:30:00+00:00,233.1248,11.5,12.97,47.84626,-54.09684
2017-10-16 01:40:00+00:00,233.4248,11.5,13.05,47.84626,-54.09684
2017-10-16 01:50:00+00:00,230.6531,11.5,13.05,47.84626,-54.09684
2017-10-16 02:00:00+00:00,225.3831,11.5,12.97,47.84626,-54.09684
2017-10-16 02:10:00+00:00,222.5198,11.5,12.89,47.84626,-54.09684
2017-10-16 02:20:00+00:00,223.8647,11.5,12.97,47.84626,-54.09684
2017-10-16 02:30:00+00:00,224.3831,11.5,12.97,47.84626,-54.09684
2017-10-16 02:40:00+00:00,219.7198,11.5,12.97,47.84626,-54.09684
2017-10-16 02:50:00+00:00,221.4681,11.5,13.05,47.84626,-54.09684
2017-10-16 03:00:00+00:00,225.6931,11.5,12.97,47.84626,-54.09684
2017-10-16 03:10:00+00:00,221.2098,11.5,12.89,47.84626,-54.09684
2017-10-16 03:20:00+00:00,215.8965,11.5,12.97,47.84626,-54.09684
2017-10-16 03:30:00+00:00,220.0264,11.5,12.97,47.84626,-54.09684
2017-10-16 03:40:00+00:00,227.0248,11.5,12.97,47.84626,-54.09684
2017-10-16 03:50:00+00:00,228.2214,11.5,12.97,47.84626,-54.09684
2017-10-16 04:00:00+00:00,227.0698,11.5,12.97,47.84626,-54.09684
2017-10-16 04:10:00+00:00,226.2398,11.5,12.89,47.84626,-54.09684
2017-10-16 04:20:00+00:00,229.2731,11.49,12.97,47.84626,-54.09684
2017-10-16 04:30:00+00:00,235.4081,11.49,12.97,47.84626,-54.09684
2017-10-16 04:40:00+00:00,240.2597,11.49,12.97,47.84626,-54.09684
2017-10-16 04:50:00+00:00,241.9664,11.49,12.97,47.84626,-54.09684
2017-10-16 05:00:00+00:00,244.3197,11.49,12.97,47.84626,-54.09684
2017-10-16 05:10:00+00:00,252.5664,11.49,12.89,47.84626,-54.09684
2017-10-16 05:20:00+00:00,261.648,11.47,12.97,47.84626,-54.09684
2017-10-16 05:30:00+00:00,264.1681,11.47,12.97,47.84626,-54.09684
2017-10-16 05:40:00+00:00,266.8264,11.47,12.97,47.84626,-54.09684
2017-10-16 05:50:00+00:00,277.8314,11.47,12.97,47.84626,-54.09684
2017-10-16 06:00:00+00:00,289.9163,11.45,12.89,47.84626,-54.09684
2017-10-16 06:10:00+00:00,291.3613,11.48,12.81,47.84626,-54.09684
2017-10-16 06:20:00+00:00,293.6497,11.48,12.89,47.84626,-54.09684
2017-10-16 06:30:00+00:00,307.1263,11.48,12.97,47.84626,-54.09684
2017-10-16 06:40:00+00:00,316.1329,11.49,12.97,47.84626,-54.09684
2017-10-16 06:50:00+00:00,312.493,11.49,12.97,47.84626,-54.09684
2017-10-16 07:00:00+00:00,320.3497,11.49,12.89,47.84626,-54.09684
2017-10-16 07:10:00+00:00,333.6013,11.5,12.81,47.84626,-54.09684
2017-10-16 07:20:00+00:00,331.213,11.5,12.89,47.84626,-54.09684
2017-10-16 07:30:00+00:00,325.3713,11.5,12.89,47.84626,-54.09684
2017-10-16 07:40:00+00:00,335.308,11.5,12.97,47.84626,-54.09684
2017-10-16 07:50:00+00:00,350.1196,11.5,12.97,47.84626,-54.09684
2017-10-16 08:00:00+00:00,344.7563,11.5,12.89,47.84626,-54.09684
2017-10-16 08:10:00+00:00,344.1496,11.5,12.81,47.84626,-54.09684
2017-10-16 08:20:00+00:00,350.0096,11.5,12.89,47.84626,-54.09684
2017-10-16 08:30:00+00:00,357.8747,11.5,12.89,47.84626,-54.09684
2017-10-16 08:40:00+00:00,355.7296,11.5,12.89,47.84626,-54.09684
2017-10-16 08:50:00+00:00,356.6746,11.5,12.89,47.84626,-54.09684
2017-10-16 09:00:00+00:00,363.3729,11.5,12.89,47.84626,-54.09684
2017-10-16 09:10:00+00:00,359.9763,11.5,12.81,47.84626,-54.09684
2017-10-16 09:20:00+00:00,353.6197,11.5,12.89,47.84626,-54.09684
2017-10-16 09:30:00+00:00,357.2213,11.5,12.89,47.84626,-54.09684
2017-10-16 09:40:00+00:00,355.7179,11.51,12.89,47.84626,-54.09684
2017-10-16 09:50:00+00:00,347.718,11.51,12.89,47.84626,-54.09684
2017-10-16 10:00:00+00:00,343.3296,11.5,12.89,47.84626,-54.09684
2017-10-16 10:10:00+00:00,343.7913,11.5,12.81,47.84626,-54.09684
2017-10-16 10:20:00+00:00,335.1414,11.5,12.89,47.84626,-54.09684
2017-10-16 10:30:00+00:00,324.8463,11.5,12.89,47.84626,-54.09684
2017-10-16 10:40:00+00:00,326.2896,11.5,12.89,47.84626,-54.09684
2017-10-16 10:50:00+00:00,321.9896,11.51,12.89,47.84626,-54.09684
2017-10-16 11:00:00+00:00,311.6813,11.53,12.89,47.84626,-54.09684
2017-10-16 11:10:00+00:00,306.3914,11.53,12.81,47.84626,-54.09684
2017-10-16 11:20:00+00:00,301.733,11.52,12.89,47.84626,-54.09684
2017-10-16 11:30:00+00:00,289.5414,11.54,12.89,47.84626,-54.09684
2017-10-16 11:40:00+00:00,280.3414,11.51,12.89,47.84626,-54.09684
2017-10-16 11:50:00+00:00,275.7598,11.52,12.89,47.84626,-54.09684
2017-10-16 12:00:00+00:00,269.0897,11.55,12.89,47.84626,-54.09684
2017-10-16 12:10:00+00:00,261.8231,11.56,12.81,47.84626,-54.09684
2017-10-16 12:20:00+00:00,257.7514,11.56,12.89,47.84626,-54.09684
2017-10-16 12:30:00+00:00,251.6131,11.57,12.89,47.84626,-54.09684
2017-10-16 12:40:00+00:00,249.6881,11.59,12.97,47.84626,-54.09684
2017-10-16 12:50:00+00:00,250.5114,11.59,12.97,47.84626,-54.09684
2017-10-16 13:00:00+00:00,245.8031,11.59,12.89,47.84626,-54.09684
2017-10-16 13:10:00+00:00,237.3414,11.6,12.81,47.84626,-54.09684
2017-10-16 13:20:00+00:00,234.5514,11.6,12.89,47.84626,-54.09684
2017-10-16 13:30:00+00:00,233.1531,11.6,12.89,47.84626,-54.09684
2017-10-16 13:40:00+00:00,225.1998,11.6,12.97,47.84626,-54.09684
2017-10-16 13:50:00+00:00,221.0164,11.6,12.97,47.84626,-54.09684
2017-10-16 14:00:00+00:00,220.1947,11.6,12.89,47.84626,-54.09684
2017-10-16 14:10:00+00:00,220.8648,11.6,12.81,47.84626,-54.09684
2017-10-16 14:20:00+00:00,216.6114,11.6,12.97,47.84626,-54.09684
2017-10-16 14:30:00+00:00,213.4298,11.6,12.97,47.84626,-54.09684
2017-10-16 14:40:00+00:00,216.4598,11.6,12.97,47.84626,-54.09684
2017-10-16 14:50:00+00:00,214.4881,11.6,13.05,47.84626,-54.09684
2017-10-16 15:00:00+00:00,210.2381,11.6,12.97,47.84626,-54.09684
2017-10-16 15:10:00+00:00,207.9547,11.62,12.89,47.84626,-54.09684
2017-10-16 15:20:00+00:00,208.8631,11.63,12.97,47.84626,-54.09684
2017-10-16 15:30:00+00:00,206.0548,11.65,12.97,47.84626,-54.09684
2017-10-16 15:40:00+00:00,203.5298,11.67,13.05,47.84626,-54.09684
2017-10-16 15:50:00+00:00,208.1381,11.67,13.05,47.84626,-54.09684
2017-10-16 16:00:00+00:00,212.7014,11.67,12.97,47.84626,-54.09684
2017-10-16 16:10:00+00:00,212.4064,11.68,12.89,47.84626,-54.09684
2017-10-16 16:20:00+00:00,212.2964,11.68,12.97,47.84626,-54.09684
2017-10-16 16:30:00+00:00,214.4181,11.68,12.97,47.84626,-54.09684
2017-10-16 16:40:00+00:00,214.2331,11.69,12.97,47.84626,-54.09684
2017-10-16 16:50:00+00:00,221.8731,11.69,13.05,47.84626,-54.09684
2017-10-16 17:00:00+00:00,225.9865,11.69,13.05,47.84626,-54.09684
2017-10-16 17:10:00+00:00,225.5197,11.7,13.05,47.84626,-54.09684
2017-10-16 17:20:00+00:00,234.9097,11.7,13.21,47.84626,-54.09684
2017-10-16 17:30:00+00:00,245.9614,11.7,13.21,47.84626,-54.09684
2017-10-16 17:40:00+00:00,250.4381,11.7,13.29,47.84626,-54.09684
2017-10-16 17:50:00+00:00,248.4314,11.7,13.29,47.84626,-54.09684
2017-10-16 18:00:00+00:00,251.823,11.7,13.21,47.84626,-54.09684
2017-10-16 18:10:00+00:00,263.4048,11.7,13.13,47.84626,-54.09684
2017-10-16 18:20:00+00:00,266.1464,11.7,13.21,47.84626,-54.09684
2017-10-16 18:30:00+00:00,266.7014,11.7,13.21,47.84626,-54.09684
2017-10-16 18:40:00+00:00,275.6198,11.7,13.29,47.84626,-54.09684
2017-10-16 18:50:00+00:00,289.4547,11.7,13.44,47.84626,-54.09684
2017-10-16 19:00:00+00:00,289.2564,11.74,13.37,47.84626,-54.09684
2017-10-16 19:10:00+00:00,297.058,11.73,13.29,47.84626,-54.09684
2017-10-16 19:20:00+00:00,311.9464,11.73,13.37,47.84626,-54.09684
2017-10-16 19:30:00+00:00,314.7697,11.76,13.29,47.84626,-54.09684
2017-10-16 19:40:00+00:00,309.2297,11.79,13.29,47.84626,-54.09684
2017-10-16 19:50:00+00:00,323.2246,11.75,13.29,47.84626,-54.09684
2017-10-16 20:00:00+00:00,335.2296,11.78,13.21,47.84626,-54.09684
2017-10-16 20:10:00+00:00,330.7097,11.79,13.05,47.84626,-54.09684
2017-10-16 20:20:00+00:00,331.7363,11.77,13.13,47.84626,-54.09684
2017-10-16 20:30:00+00:00,346.7496,11.78,13.05,47.84626,-54.09684
2017-10-16 20:40:00+00:00,355.3396,11.79,13.05,47.84626,-54.09684
2017-10-16 20:50:00+00:00,348.9946,11.78,13.05,47.84626,-54.09684
2017-10-16 21:00:00+00:00,357.1896,11.77,12.97,47.84626,-54.09684
2017-10-16 21:10:00+00:00,373.688,11.77,12.97,47.84626,-54.09684
2017-10-16 21:20:00+00:00,372.6396,11.78,12.97,47.84626,-54.09684
2017-10-16 21:30:00+00:00,363.4579,11.78,12.97,47.84626,-54.09684
2017-10-16 21:40:00+00:00,372.5295,11.77,12.97,47.84626,-54.09684
2017-10-16 21:50:00+00:00,377.9496,11.78,12.97,47.84626,-54.09684
2017-10-16 22:00:00+00:00,367.5496,11.78,12.97,47.84626,-54.09684
2017-10-16 22:10:00+00:00,363.3962,11.78,12.89,47.84626,-54.09684
2017-10-16 22:20:00+00:00,370.4412,11.78,12.97,47.84626,-54.09684
2017-10-16 22:30:00+00:00,364.748,11.78,12.97,47.84626,-54.09684
2017-10-16 22:40:00+00:00,352.0363,11.79,12.97,47.84626,-54.09684
2017-10-16 22:50:00+00:00,351.8364,11.77,12.97,47.84626,-54.09684
2017-10-16 23:00:00+00:00,353.9962,11.79,12.89,47.84626,-54.09684
2017-10-16 23:10:00+00:00,340.3013,11.76,12.81,47.84626,-54.09684
2017-10-16 23:20:00+00:00,332.1396,11.76,12.89,47.84626,-54.09684
2017-10-16 23:30:00+00:00,336.5713,11.75,12.89,47.84626,-54.09684
2017-10-16 23:40:00+00:00,330.8447,11.74,12.97,47.84626,-54.09684
2017-10-16 23:50:00+00:00,312.3747,11.7,12.97,47.84626,-54.09684
